TimePDT,TemperatureF,Dew PointF,Humidity,Sea Level PressureIn,VisibilityMPH,Wind Direction,Wind SpeedMPH,Gust SpeedMPH,PrecipitationIn,Events,Conditions,WindDirDegrees,DateUTC
12:56 AM,55.9,50.0,80,30.12,10.0,Calm,Calm,-,N/A,,Clear,0,2012-10-05 07:56:00
1:56 AM,53.1,48.9,86,30.12,10.0,Calm,Calm,-,N/A,,Clear,0,2012-10-05 08:56:00
2:56 AM,54.0,48.0,80,30.13,10.0,Calm,Calm,-,N/A,,Clear,0,2012-10-05 09:56:00
3:56 AM,52.0,48.0,86,30.12,10.0,Calm,Calm,-,N/A,,Clear,0,2012-10-05 10:56:00
4:56 AM,50.0,46.9,89,30.12,10.0,Calm,Calm,-,N/A,,Partly Cloudy,0,2012-10-05 11:56:00
5:09 AM,51.8,46.4,82,30.14,10.0,Calm,Calm,-,N/A,,Mostly Cloudy,0,2012-10-05 12:09:00
5:56 AM,53.1,48.0,83,30.13,10.0,Calm,Calm,-,N/A,,Partly Cloudy,0,2012-10-05 12:56:00
6:56 AM,53.1,48.0,83,30.14,10.0,Calm,Calm,-,N/A,,Clear,0,2012-10-05 13:56:00
7:56 AM,52.0,48.0,86,30.15,10.0,Calm,Calm,-,N/A,,Clear,0,2012-10-05 14:56:00
8:56 AM,54.0,48.9,83,30.15,10.0,Calm,Calm,-,N/A,,Clear,0,2012-10-05 15:56:00
9:56 AM,60.1,50.0,69,30.14,10.0,Calm,Calm,-,N/A,,Clear,0,2012-10-05 16:56:00
10:56 AM,64.0,48.9,58,30.13,10.0,NW,3.5,-,N/A,,Partly Cloudy,310,2012-10-05 17:56:00
11:56 AM,66.9,50.0,54,30.12,10.0,SE,4.6,-,N/A,,Scattered Clouds,140,2012-10-05 18:56:00
12:56 PM,69.1,48.9,49,30.10,10.0,SSE,3.5,-,N/A,,Scattered Clouds,160,2012-10-05 19:56:00
1:56 PM,70.0,48.0,46,30.08,10.0,West,3.5,-,N/A,,Partly Cloudy,260,2012-10-05 20:56:00
2:56 PM,73.0,48.0,41,30.06,10.0,Variable,4.6,-,N/A,,Mostly Cloudy,0,2012-10-05 21:56:00
3:56 PM,72.0,48.0,43,30.05,10.0,West,6.9,-,N/A,,Mostly Cloudy,260,2012-10-05 22:56:00
4:56 PM,71.1,50.0,47,30.04,10.0,West,9.2,-,N/A,,Clear,260,2012-10-05 23:56:00
5:56 PM,68.0,51.1,55,30.04,10.0,SW,8.1,-,N/A,,Clear,230,2012-10-06 00:56:00
6:56 PM,64.9,50.0,58,30.05,10.0,East,3.5,-,N/A,,Scattered Clouds,90,2012-10-06 01:56:00
7:56 PM,63.0,50.0,63,30.06,10.0,Variable,4.6,-,N/A,,Partly Cloudy,0,2012-10-06 02:56:00
8:56 PM,59.0,50.0,72,30.07,10.0,SSE,3.5,-,N/A,,Clear,150,2012-10-06 03:56:00
9:56 PM,57.9,48.9,72,30.07,10.0,SE,3.5,-,N/A,,Overcast,130,2012-10-06 04:56:00
10:08 PM,59.0,50.0,72,30.08,10.0,Calm,Calm,-,N/A,,Overcast,0,2012-10-06 05:08:00
10:56 PM,60.1,48.9,67,30.07,10.0,SE,3.5,-,N/A,,Overcast,140,2012-10-06 05:56:00
11:56 PM,60.1,48.9,67,30.06,10.0,South,3.5,-,N/A,,Overcast,180,2012-10-06 06:56:00